Flag for Ireland Weather past 2 weeks in Cork, Ireland

Now
57 °F

Light rain. Low clouds.


Feels Like: 57 °F
Forecast: 51 / 65 °F
Wind: 3 mph from Southwest

Location: Cork Airport

Current Time: Aug 1, 2014 at 5:16:33 AM

Latest Report: Aug 1, 2014 at 4:00 AM


Visibility: 2 mi

Pressure: 29.74 "Hg

Humidity: 99%

Dew point: 57 °F

Location of CorkLocation

Historic Weather in Cork — Graph

°F

Cork temperature yesterday

Maximum temperature yesterday: 69 °F (at 4:00 PM)
Minimum temperature yesterday: 57 °F (at 11:00 PM)
Average temperature yesterday: 62 °F

Past Weeks' High & Low Weather Summary

 TemperatureHumidityPressure
High75 °F (Jul 25, 3:00 PM)100% (Jul 22, 5:00 AM)30.23 "Hg (Jul 22, 5:00 AM)
Low54 °F (Jul 30, 6:00 AM)48% (Jul 27, 4:00 PM)29.74 "Hg (Aug 1, 4:00 AM)
Average63 °F84%30.04 "Hg
* Reported Jul 17 4:00 AM — Aug 1 4:00 AM, Cork, Weather by CustomWeather, © 2014

Note: Actual official high and low records may vary slightly from our data, if they occured in-between our weather recording intervals... More about our weather records

Advertising

Cork weather history for previous 24 hours

 ConditionsComfort  
Time TempWeatherWind HumidityBarometerVisibility
4:00 AM
Aug 1
57 °FLight rain. Low clouds.3 mph99%29.74 "Hg2 mi
3:00 AM57 °FRain. Low clouds.6 mph98%29.76 "Hg1 mi
2:00 AM58 °FRain. Low clouds.5 mph98%29.78 "Hg2 mi
1:00 AM57 °FLight rain. Overcast.2 mph96%29.81 "Hg2 mi
12:00 AM58 °FFog.3 mph94%29.83 "Hg9 mi
11:00 PM
Jul 31
57 °FPassing clouds.3 mph92%29.83 "Hg11 mi
10:00 PM59 °FFog.3 mph90%29.85 "Hg12 mi
9:00 PM62 °FOvercast.5 mph81%29.85 "Hg12 mi
8:00 PM63 °FOvercast.5 mph76%29.85 "Hg16 mi
7:00 PM65 °FPartly sunny.7 mph72%29.84 "Hg12 mi
6:00 PM66 °FPartly sunny.8 mph71%29.85 "Hg12 mi
5:00 PM68 °FScattered clouds.8 mph65%29.85 "Hg12 mi
4:00 PM69 °FPartly sunny.8 mph68%29.87 "Hg12 mi
3:00 PM68 °FPartly sunny.8 mph66%29.88 "Hg12 mi
2:00 PM67 °FPartly sunny.7 mph67%29.89 "Hg12 mi
1:00 PM68 °FPartly sunny.7 mph72%29.90 "Hg12 mi
12:00 PM65 °FPartly sunny.6 mph76%29.91 "Hg12 mi
11:00 AM64 °FLow clouds.7 mph86%29.93 "Hg12 mi
10:00 AM60 °FLight rain. Low clouds.5 mph95%29.94 "Hg9 mi
9:00 AM60 °FOvercast.5 mph93%29.95 "Hg11 mi
8:00 AM59 °FOvercast.3 mph95%29.95 "Hg11 mi
7:00 AM59 °FOvercast.3 mph96%29.96 "Hg11 mi
6:00 AM58 °FOvercast.3 mph95%29.96 "Hg12 mi
5:00 AM58 °FOvercast.3 mph94%29.97 "Hg19 mi
Weather by CustomWeather, © 2014

See weather overviewHow to use our weather pages